Wetbulb
53.05 53.01 52.98 53.00 53.26 53.82 54.01 53.98 53.09 52.46 52.27 52.43 52.54 51.89 50.32 50.27 50.69 51.24 50.68 49.05 46.36 43.77 45.15 44.45 44.43 43.39 42.78 42.30 40.98 40.32 39.51 38.04 36.79 34.77 35.68 36.78 34.59 36.34 32.85 36.47 31.67 30.90 29.01 27.15 28.79 26.62 25.19 39.69 38.34 35.63 41.66 43.39 42.43 42.21
53.43 53.63 53.69 53.67 53.83 54.08 54.29 54.16 53.15 52.27 52.04 52.04 52.26 51.88 50.65 50.63 50.65 51.28 47.75 48.00 45.95 42.73 44.61 47.43 47.38 48.26 46.95 47.23 44.27 42.18 42.94 40.54 41.74 38.57 39.55 38.94 34.49 35.67 35.35 32.71 37.89 31.78 36.37 35.98 34.84 34.80 42.99 42.01 41.96 43.81 43.59 41.79 42.97 42.79
49.98 50.22 50.30 50.42 50.67 51.14 52.17 52.86 52.53 52.18 51.56 50.95 50.64 50.39 50.24 50.19 50.56 49.91 48.53 46.66 44.77 42.18 42.92 43.60 43.75 47.87 48.45 47.30 48.86 41.38 43.25 45.09 42.59 44.64 41.02 39.33 34.11 38.15 33.71 34.63 37.30 40.81 41.64 35.65 36.23 40.10 42.02 43.88 45.78 45.73 45.71 43.92 43.54 43.34
46.75 46.89 47.62 48.03 48.79 49.43 49.55 49.68 49.94 49.90 49.67 49.52 49.44 49.49 49.73 50.16 50.47 49.74 46.91 48.30 45.26 43.84 37.62 40.97 45.72 44.70 47.02 46.63 46.36 47.10 46.27 44.01 42.29 40.87 37.30 35.17 33.20 39.90 35.92 38.01 36.92 40.77 40.03 37.15 36.32 39.77 41.50 42.98 44.35 45.04 43.77 43.39 42.70 42.82
46.05 46.34 46.42 47.07 47.91 48.18 48.13 47.89 47.74 47.88 48.21 48.36 48.70 49.10 49.60 50.18 50.32 50.16 49.07 48.41 48.00 43.34 38.02 39.75 44.93 46.75 45.82 44.87 43.88 44.33 43.91 42.66 38.43 34.90 33.57 32.51 37.02 36.06 35.99 34.81 33.74 40.12 38.90 36.65 35.50 41.50 41.39 42.08 44.58 44.55 42.00 41.77 40.89 39.59
45.50 45.22 46.56 46.51 46.68 47.03 47.28 47.41 47.01 46.71 46.98 47.51 48.09 48.05 48.03 48.68 48.56 47.88 42.69 48.90 48.93 46.97 39.36 34.37 44.01 43.00 39.84 40.57 41.01 41.92 42.32 40.22 38.92 35.82 34.80 36.17 38.92 36.49 32.09 31.10 38.69 41.67 43.01 43.30 40.47 44.18 43.74 43.63 42.84 43.31 41.82 40.28 40.07 39.26
46.18 46.90 46.84 46.75 46.87 47.26 47.55 47.57 47.37 46.93 46.50 46.19 46.74 46.81 46.85 47.74 47.84 43.60 41.28 45.75 48.33 47.21 39.22 34.77 36.01 37.32 37.88 37.94 37.10 36.87 38.20 37.82 37.22 35.05 33.31 34.21 34.90 37.03 33.56 30.57 38.22 40.70 42.45 43.26 44.08 43.79 41.09 41.96 40.42 43.28 40.42 39.92 39.51 38.91
45.81 45.89 46.01 45.97 46.08 46.15 46.62 47.28 47.34 47.12 46.73 46.22 46.02 45.95 45.76 46.15 45.84 42.36 45.44 48.20 48.76 44.31 41.44 32.98 33.82 35.95 37.86 35.74 34.79 36.73 33.61 34.00 33.70 33.66 34.36 32.72 34.33 34.51 30.10 36.63 39.39 40.92 41.82 42.23 42.94 43.63 42.99 42.82 41.12 39.25 39.19 38.15 37.72 37.14
45.70 45.94 46.02 45.90 45.83 45.75 45.77 46.00 46.35 46.78 46.85 46.48 45.92 45.71 44.56 42.79 39.54 41.77 47.08 47.78 49.18 43.93 36.90 35.44 31.61 31.31 37.05 35.49 35.38 34.23 35.43 30.45 35.54 31.00 31.47 32.94 31.26 28.32 33.75 36.47 38.62 40.20 40.09 40.05 40.06 39.09 38.30 36.93 37.61 37.84 37.53 37.01 35.77 35.87
45.27 45.58 45.56 45.67 45.65 45.66 45.63 45.57 45.69 45.90 46.10 46.00 44.21 39.13 36.55 42.47 46.55 46.36 43.43 39.89 39.37 40.71 39.68 33.15 38.30 33.49 35.92 34.51 32.59 33.18 32.80 30.42 29.32 31.21 34.46 29.98 30.35 37.07 38.65 39.62 40.09 40.14 40.62 40.11 35.34 35.12 35.89 35.79 36.03 36.30 36.48 37.36 37.27 37.09
44.57 44.82 45.05 45.15 45.48 45.55 45.57 45.48 45.27 44.99 44.11 42.37 37.64 36.16 43.69 45.74 43.06 40.05 35.16 33.23 34.61 31.66 34.85 35.13 35.36 32.90 36.65 32.55 32.75 34.15 32.72 32.22 27.14 30.97 29.77 28.74 28.34 34.04 37.65 37.02 38.36 38.62 39.91 38.56 38.10 37.75 37.65 36.98 35.93 35.66 36.06 36.76 37.24 37.04
43.87 44.06 44.29 44.57 44.81 44.96 45.13 45.08 45.17 43.53 41.80 40.87 41.08 43.14 42.32 37.98 34.58 30.94 30.25 33.07 31.49 30.14 34.69 33.51 33.96 35.30 35.32 37.07 33.35 33.86 31.42 32.14 25.56 31.67 28.13 26.08 33.27 34.54 34.49 35.18 36.73 37.65 37.10 35.90 36.06 35.29 35.78 35.74 36.15 35.94 36.09 36.52 37.14 37.53
43.47 43.63 43.80 43.92 44.14 44.29 44.43 44.65 44.69 44.27 43.30 41.74 37.07 32.25 32.93 33.04 25.91 24.01 22.15 27.30 29.80 33.51 33.87 33.12 31.56 34.50 33.52 34.19 32.33 32.09 28.74 28.57 31.07 26.50 25.95 30.29 32.98 33.48 35.17 35.25 34.51 35.48 34.98 34.61 34.36 35.17 35.72 35.73 36.64 35.48 34.42 36.01 37.23 36.68
42.95 43.22 43.42 43.58 43.75 43.83 43.95 44.24 44.15 43.17 39.37 33.37 29.84 24.21 25.58 24.45 25.72 27.78 28.30 31.10 33.65 33.90 32.84 33.02 33.01 31.23 34.19 31.03 31.73 28.21 31.14 29.06 24.16 22.85 24.79 30.57 31.97 33.49 35.82 35.65 35.06 33.48 34.34 34.12 34.00 34.60 34.73 34.87 34.76 35.56 35.50 35.57 35.16 34.45
42.45 42.75 43.05 43.05 43.42 43.63 43.80 43.95 43.59 42.16 36.75 30.90 29.63 23.24 24.85 29.60 31.03 31.46 30.77 30.91 33.56 34.44 34.09 33.00 32.21 32.80 30.76 28.87 30.04 28.53 25.74 22.40 25.37 25.51 29.90 32.96 33.32 33.39 34.41 34.80 35.06 35.80 35.22 34.25 33.32 32.78 32.73 32.98 32.67 32.41 33.76 34.14 34.02 33.63
41.98 41.87 41.07 42.57 42.96 43.38 43.74 43.40 41.50 39.43 33.31 31.40 30.23 26.53 28.40 26.85 28.94 28.95 29.88 29.48 33.46 32.42 32.39 33.00 28.42 26.71 26.34 27.78 24.87 23.55 23.21 21.83 27.35 31.35 34.51 34.97 33.67 34.55 35.07 35.55 36.01 36.32 35.79 34.21 33.78 33.06 32.93 32.49 32.31 32.82 33.45 32.95 32.52 32.02
41.12 38.01 41.32 41.55 42.33 42.86 42.83 39.39 35.81 31.55 31.15 29.89 28.23 31.66 30.37 30.76 30.01 31.36 31.71 31.90 35.46 32.32 27.72 28.92 22.91 21.95 26.29 23.21 21.83 25.94 23.84 27.95 30.90 31.48 32.66 32.81 32.22 32.25 32.36 32.25 32.41 32.56 32.39 32.45 32.29 32.37 32.40 32.81 32.97 31.59 30.02 31.61 32.00 32.00
38.06 40.51 41.34 41.38 41.38 40.12 38.65 36.01 31.77 30.97 27.96 30.04 27.62 30.08 30.21 31.51 31.21 31.77 33.10 33.19 31.79 30.52 29.37 25.52 28.76 22.76 20.89 19.21 21.15 26.73 29.27 31.27 32.38 32.38 32.72 33.42 33.28 32.79 32.55 32.21 32.42 32.22 31.77 31.51 31.35 31.54 31.32 30.78 30.08 30.13 30.71 31.36 31.16 30.86
39.37 40.61 41.12 41.51 40.22 36.45 31.66 31.53 32.13 26.34 28.04 30.41 30.52 31.09 30.83 30.57 32.84 33.46 33.64 34.34 33.90 33.51 30.87 28.52 24.31 22.71 23.31 27.15 27.36 29.20 30.56 31.21 30.85 32.14 33.16 33.99 33.18 32.30 32.04 32.00 31.40 31.10 30.74 30.77 31.03 31.03 31.61 31.62 31.63 32.06 32.22 32.11 30.66 31.17
40.78 40.79 40.87 41.01 39.91 32.04 29.59 29.72 32.19 27.92 24.83 28.25 30.01 28.94 29.59 29.48 31.40 31.85 31.96 32.06 31.14 29.20 26.24 24.59 24.20 26.76 27.61 29.94 31.50 31.42 32.05 33.17 32.34 30.21 30.58 32.42 33.71 32.46 32.09 32.02 32.29 32.50 32.25 32.10 32.18 33.89 32.46 32.28 33.01 32.83 32.48 31.51 30.05 29.83
39.14 39.20 40.09 39.50 34.65 32.89 31.25 29.94 28.28 28.02 28.19 26.51 28.64 28.31 28.51 30.43 28.72 28.70 28.67 31.01 27.87 25.91 24.48 27.43 28.19 30.57 32.66 33.19 34.03 33.80 33.16 33.23 31.73 31.59 30.62 30.32 33.03 32.95 32.63 32.93 32.79 32.72 31.81 31.62 31.18 31.59 32.82 31.70 32.69 33.27 32.60 32.01 32.05 31.88
37.11 39.16 34.27 35.17 31.64 31.55 30.33 31.67 28.84 30.08 26.86 26.97 26.45 27.21 26.19 25.30 25.65 27.27 30.12 27.33 26.22 27.05 28.73 28.80 29.54 30.29 30.31 30.62 31.66 32.76 32.95 32.88 32.77 32.66 33.81 33.20 30.37 30.47 30.74 31.60 31.34 30.61 30.89 31.12 31.23 30.82 31.31 32.31 32.85 32.71 32.01 31.71 32.63 31.74
37.53 35.77 32.44 31.97 28.18 27.25 25.46 30.74 25.51 25.94 22.58 23.01 21.40 20.85 21.45 22.16 25.31 26.97 23.82 26.66 27.25 30.33 30.69 30.46 30.67 31.37 30.42 31.48 31.86 31.80 32.22 31.27 30.36 30.93 31.35 31.58 31.90 31.80 31.39 31.35 31.56 30.35 29.72 30.61 31.92 31.50 31.19 33.11 32.67 32.06 31.71 31.44 30.93 30.57
35.66 30.46 26.99 25.95 25.62 20.31 25.80 22.72 25.05 21.70 20.91 19.72 18.97 17.84 20.59 22.34 23.03 21.34 20.02 24.11 27.66 30.22 29.76 29.68 30.19 29.29 30.03 29.67 29.05 29.71 30.73 31.58 30.64 30.92 31.53 30.62 29.65 30.11 31.04 30.85 31.31 31.54 31.35 31.46 31.21 30.93 30.99 30.85 32.22 31.03 30.56 29.94 29.78 29.47
25.72 23.79 24.42 17.96 21.88 20.03 17.76 18.90 19.54 20.88 16.78 19.00 18.64 18.23 21.13 19.40 17.69 18.62 19.00 23.59 26.68 27.67 28.88 29.88 29.86 29.39 27.63 28.22 29.16 29.98 31.91 31.50 29.95 29.13 30.87 31.26 30.22 29.99 29.52 30.06 30.57 31.37 32.21 30.40 29.51 29.63 29.78 30.29 30.18 29.85 29.58 29.28 28.64 28.31
20.58 21.95 20.89 19.45 18.82 18.86 18.40 14.73 15.03 16.87 18.25 16.20 16.45 21.75 18.19 18.92 16.77 16.19 20.99 24.97 26.61 27.95 28.65 28.89 28.45 28.12 28.25 29.43 28.72 29.25 30.40 32.26 31.24 29.15 30.30 31.25 30.43 29.10 28.21 27.69 27.80 29.32 32.69 31.87 30.54 29.67 29.46 29.60 29.18 28.57 28.58 28.91 30.49 28.84
20.08 20.91 23.25 24.88 21.77 20.26 18.39 16.93 16.83 17.50 13.64 12.67 17.83 16.96 16.68 14.37 14.50 19.88 26.11 28.62 28.24 30.18 31.20 31.14 30.42 29.12 28.39 28.83 30.21 31.20 31.94 31.95 30.77 30.53 31.79 31.79 31.87 31.93 30.70 28.60 27.57 30.04 32.33 31.74 31.08 30.26 29.24 28.97 28.75 28.51 28.15 28.62 28.55 28.06
23.23 21.89 16.38 19.93 19.50 21.13 18.12 17.56 15.85 13.75 16.39 21.42 19.66 13.60 12.60 14.62 17.69 25.59 27.86 30.64 31.05 31.34 31.01 30.79 30.72 30.37 29.61 29.66 30.26 30.28 30.39 30.91 30.89 30.86 30.98 30.95 31.44 31.29 31.00 31.14 31.31 32.17 31.70 31.22 30.77 30.42 29.77 29.18 28.57 28.21 27.80 27.22 27.17 27.97
22.30 22.24 22.98 16.98 19.17 18.84 18.33 18.13 19.24 22.45 24.52 22.25 19.31 18.85 20.54 25.40 28.16 28.32 29.75 30.70 31.25 30.30 28.72 28.35 28.97 30.56 30.40 30.79 30.88 30.93 30.72 29.81 26.91 24.19 23.07 23.33 25.04 27.32 30.60 30.76 30.80 30.81 30.43 29.60 31.20 31.24 29.65 29.10 28.72 28.30 28.09 28.29 28.69 29.07
21.33 24.56 21.19 17.97 14.44 15.89 21.20 22.06 22.58 26.59 27.00 26.64 26.71 25.59 25.40 26.69 29.26 31.46 30.36 29.85 28.53 27.86 28.59 28.93 29.17 28.86 27.64 27.38 27.09 27.95 29.99 30.27 29.89 27.12 24.73 24.53 25.78 29.16 29.99 29.94 30.00 30.14 29.84 29.00 27.80 27.48 30.06 29.18 28.49 27.52 27.26 27.68 28.77 29.68
23.35 23.35 20.44 21.35 19.78 22.65 24.76 27.12 27.89 27.40 26.06 24.72 25.21 22.40 22.66 25.44 28.22 29.97 29.43 29.44 29.09 28.69 27.70 26.84 27.24 28.14 27.34 26.93 26.60 25.83 25.62 29.47 30.08 29.99 30.27 30.19 30.41 29.58 29.03 28.85 29.16 29.30 28.98 28.31 27.62 27.20 26.78 26.58 26.48 26.62 26.90 27.02 27.63 28.45
18.49 18.32 16.73 12.23 19.60 24.92 24.47 22.35 22.58 21.32 22.41 21.86 21.73 23.71 23.43 22.35 19.87 24.84 29.11 29.21 27.88 26.77 28.35 28.47 26.70 26.57 24.32 21.90 22.17 23.22 25.24 23.91 23.28 24.34 22.70 21.93 22.09 23.02 23.41 23.63 24.01 24.57 25.24 25.71 26.07 26.30 26.33 26.20 26.29 26.53 26.69 27.00 25.65 24.74
13.64 13.02 12.65 13.82 15.44 15.81 18.81 17.05 16.53 13.11 14.39 15.48 19.24 21.12 21.80 21.04 18.66 25.15 20.55 19.31 20.74 19.99 18.65 18.10 18.35 18.83 19.09 19.45 20.34 21.25 22.55 20.49 18.83 23.14 24.57 25.10 26.14 26.48 26.60 27.25 27.79 27.71 26.70 26.24 26.13 26.16 25.59 25.53 25.44 25.34 25.13 24.77 24.08 23.81
MSLP
1026.28 1026.47 1026.53 1026.60 1026.61 1026.49 1026.46 1026.51 1026.89 1026.76 1026.93 1027.03 1027.07 1026.92 1026.81 1026.78 1026.69 1026.46 1026.10 1026.43 1026.46 1025.42 1023.96 1023.64 1023.28 1022.74 1022.63 1022.49 1022.05 1023.01 1023.46 1023.64 1023.78 1022.98 1022.03 1021.22 1020.82 1020.21 1020.47 1019.87 1020.50 1020.98 1021.60 1021.51 1020.97 1019.56 1017.10 1015.46 1016.11 1015.83 1014.59 1014.34 1014.75 1014.88
1025.79 1025.96 1025.98 1025.88 1026.08 1026.08 1026.03 1025.97 1026.28 1026.40 1026.54 1026.68 1026.67 1026.69 1026.72 1026.79 1026.86 1026.84 1026.56 1026.61 1026.89 1026.58 1024.63 1023.75 1023.22 1022.85 1022.72 1022.50 1022.57 1022.60 1021.92 1022.25 1022.08 1022.03 1021.52 1020.97 1020.61 1020.22 1019.39 1018.77 1019.28 1019.18 1017.94 1017.65 1017.91 1016.09 1015.02 1015.12 1014.11 1014.44 1014.42 1014.44 1014.29 1014.65
1025.88 1025.91 1025.87 1025.81 1025.75 1025.66 1025.72 1025.81 1025.94 1026.10 1026.15 1026.39 1026.64 1026.55 1026.42 1026.45 1026.51 1026.78 1026.81 1027.05 1026.92 1026.37 1024.42 1023.40 1022.24 1022.10 1022.44 1022.56 1022.68 1022.79 1022.28 1022.10 1022.16 1022.08 1021.86 1021.45 1021.09 1020.31 1019.38 1018.05 1017.73 1017.14 1017.59 1017.04 1016.50 1014.06 1014.00 1013.87 1013.57 1013.66 1013.76 1014.09 1014.75 1015.06
1026.25 1026.12 1025.93 1025.90 1025.95 1025.73 1025.58 1025.81 1026.03 1026.00 1026.11 1026.11 1026.34 1026.48 1026.39 1026.17 1026.30 1026.38 1026.45 1026.46 1027.06 1026.48 1025.15 1022.71 1022.45 1022.14 1021.97 1022.29 1022.36 1022.22 1022.02 1022.58 1022.79 1022.87 1022.86 1022.48 1021.97 1020.67 1018.96 1017.99 1017.73 1016.81 1016.70 1016.15 1015.35 1014.26 1014.05 1013.50 1013.09 1013.24 1013.99 1014.64 1014.74 1014.76
1026.34 1026.24 1026.12 1025.92 1026.00 1025.86 1025.91 1025.59 1025.87 1026.04 1026.01 1025.84 1025.97 1026.11 1026.18 1026.30 1026.31 1026.08 1025.97 1025.70 1025.86 1026.35 1024.99 1023.23 1022.52 1021.54 1021.70 1022.04 1022.26 1022.39 1022.55 1022.70 1023.20 1023.47 1023.27 1022.63 1021.86 1021.36 1019.98 1019.13 1017.27 1016.72 1015.90 1015.36 1013.32 1013.64 1013.39 1013.02 1013.05 1013.45 1014.07 1014.42 1014.83 1015.04
1026.35 1026.30 1026.14 1026.09 1026.01 1025.76 1025.79 1025.81 1025.99 1025.89 1025.93 1025.69 1025.91 1026.09 1025.93 1025.98 1026.11 1026.02 1025.36 1024.97 1025.06 1025.56 1025.51 1023.92 1022.02 1021.53 1022.21 1022.42 1022.49 1022.33 1022.65 1022.99 1023.02 1023.13 1022.87 1022.03 1021.36 1021.06 1019.51 1017.30 1016.06 1015.27 1014.95 1014.53 1013.29 1013.38 1013.14 1013.09 1013.49 1013.68 1013.85 1014.30 1014.68 1014.93
1025.80 1025.90 1025.96 1025.97 1025.92 1025.83 1025.70 1025.74 1025.89 1025.93 1025.89 1025.60 1025.66 1025.67 1025.84 1025.96 1025.90 1025.53 1025.28 1025.41 1025.14 1025.54 1025.51 1024.03 1022.39 1022.01 1022.34 1022.51 1022.83 1022.90 1022.89 1022.98 1023.11 1022.78 1022.24 1021.89 1021.53 1021.09 1018.68 1015.85 1015.52 1014.83 1014.07 1013.70 1013.59 1013.14 1012.73 1013.13 1013.07 1013.30 1013.95 1014.29 1014.55 1014.75
1025.40 1025.42 1025.65 1025.72 1025.81 1025.67 1025.72 1025.77 1025.78 1025.67 1025.73 1025.60 1025.51 1025.32 1025.41 1025.65 1025.68 1025.34 1024.31 1024.66 1025.19 1025.15 1025.17 1024.05 1022.50 1022.56 1022.34 1022.25 1022.64 1023.16 1023.05 1023.23 1022.99 1022.47 1021.86 1021.29 1020.70 1019.92 1017.14 1015.28 1014.59 1013.42 1013.09 1012.96 1012.81 1012.93 1012.66 1012.85 1013.34 1013.76 1014.07 1014.22 1014.29 1014.24
1024.98 1025.13 1025.24 1025.37 1025.36 1025.30 1025.32 1025.42 1025.50 1025.50 1025.52 1025.44 1025.33 1025.25 1025.10 1025.09 1024.92 1024.12 1024.14 1024.35 1024.35 1024.60 1023.64 1022.89 1022.05 1021.46 1022.17 1022.01 1022.41 1022.95 1022.88 1022.82 1022.33 1021.81 1021.25 1021.17 1019.19 1017.17 1014.39 1014.03 1012.97 1012.73 1012.46 1012.62 1013.05 1013.26 1013.40 1013.52 1013.57 1013.89 1014.05 1014.03 1013.93 1013.82
1024.64 1024.78 1024.90 1024.98 1024.97 1025.02 1025.01 1025.03 1024.96 1025.14 1025.23 1025.34 1025.39 1025.13 1024.60 1024.25 1024.33 1024.21 1024.20 1024.22 1023.76 1023.13 1022.83 1021.49 1021.25 1020.83 1021.45 1021.78 1022.00 1022.56 1022.43 1021.87 1020.90 1020.04 1020.12 1019.38 1016.59 1014.92 1013.84 1012.93 1012.62 1012.74 1012.68 1012.96 1013.20 1013.34 1013.65 1013.88 1013.93 1014.07 1013.98 1013.85 1013.55 1013.37
1024.04 1024.23 1024.43 1024.51 1024.56 1024.74 1024.73 1024.65 1024.70 1024.92 1025.08 1025.00 1024.90 1024.71 1024.38 1024.34 1024.40 1023.97 1023.53 1023.32 1022.78 1021.78 1021.15 1020.53 1020.69 1020.12 1020.70 1020.86 1021.25 1021.60 1020.68 1020.44 1019.61 1018.48 1018.78 1017.13 1015.01 1013.77 1013.17 1012.90 1012.85 1012.94 1013.10 1013.98 1014.32 1014.21 1014.25 1014.26 1014.21 1014.09 1013.81 1013.42 1013.35 1013.13
1023.67 1023.73 1023.64 1023.93 1024.19 1024.23 1024.26 1024.36 1024.55 1024.84 1024.61 1024.58 1024.68 1024.61 1024.47 1024.33 1024.16 1023.95 1022.88 1021.98 1021.36 1020.36 1020.09 1020.23 1020.28 1020.22 1020.15 1020.74 1020.85 1020.36 1019.84 1019.35 1018.30 1018.16 1017.73 1015.35 1013.74 1013.61 1013.59 1013.55 1013.55 1013.62 1014.15 1014.76 1015.14 1015.31 1015.04 1014.65 1014.31 1013.98 1013.68 1013.20 1012.90 1012.62
1023.05 1023.11 1023.16 1023.30 1023.70 1023.66 1023.80 1023.74 1023.95 1024.33 1024.50 1024.74 1024.56 1024.82 1024.49 1024.05 1023.63 1022.73 1021.42 1020.51 1020.02 1019.73 1020.03 1020.44 1020.41 1020.34 1020.56 1020.75 1020.18 1019.75 1018.90 1017.82 1017.73 1017.33 1015.32 1014.01 1014.09 1014.14 1014.12 1014.21 1014.49 1014.76 1015.02 1015.17 1015.31 1015.16 1014.73 1014.40 1014.13 1013.87 1013.45 1012.96 1012.36 1011.97
1022.39 1022.52 1022.69 1022.73 1022.96 1023.14 1023.16 1023.13 1023.52 1024.09 1024.55 1024.60 1024.52 1024.27 1023.81 1022.54 1021.48 1020.69 1020.48 1020.07 1019.99 1020.16 1020.43 1020.58 1020.50 1020.58 1020.24 1020.25 1019.53 1018.84 1017.72 1017.41 1016.20 1015.48 1014.57 1014.56 1014.80 1014.70 1014.80 1015.15 1015.29 1015.16 1014.96 1014.68 1014.53 1014.19 1013.97 1013.86 1013.67 1013.48 1012.77 1012.44 1011.92 1011.05
1021.62 1021.75 1021.89 1022.01 1022.17 1022.32 1022.40 1022.54 1023.08 1023.67 1023.96 1024.01 1023.71 1022.56 1021.47 1020.58 1020.53 1020.75 1020.95 1020.74 1020.52 1020.66 1020.54 1020.58 1020.57 1020.42 1020.08 1019.89 1018.97 1018.00 1017.05 1015.94 1014.86 1014.31 1014.63 1014.93 1014.93 1015.14 1015.54 1015.90 1015.36 1014.61 1013.95 1013.97 1014.22 1014.00 1013.58 1013.19 1012.93 1012.44 1012.43 1012.11 1011.46 1010.63
1020.95 1021.12 1021.01 1021.15 1021.35 1021.44 1021.64 1022.13 1022.60 1023.09 1023.08 1022.83 1022.17 1021.24 1020.69 1020.66 1020.32 1020.79 1020.43 1020.35 1020.52 1020.63 1020.73 1020.72 1020.74 1020.24 1019.14 1018.66 1017.82 1016.75 1015.68 1014.20 1013.83 1014.33 1014.70 1014.75 1014.59 1014.53 1014.45 1014.34 1014.03 1013.64 1013.23 1012.92 1012.88 1012.79 1012.53 1012.22 1011.91 1011.45 1011.31 1011.08 1010.38 1009.73
1020.24 1020.15 1020.12 1020.36 1020.50 1020.73 1021.08 1021.82 1022.06 1022.03 1021.67 1021.04 1020.31 1019.93 1019.66 1019.53 1019.55 1019.51 1019.53 1019.41 1019.72 1020.24 1020.16 1019.91 1019.66 1019.11 1018.55 1017.45 1016.73 1016.10 1014.97 1014.43 1014.23 1013.91 1013.98 1014.06 1013.91 1013.83 1013.68 1013.41 1013.25 1012.93 1012.66 1012.49 1012.37 1012.07 1011.58 1011.17 1010.77 1010.41 1009.80 1009.04 1008.94 1008.53
1019.40 1019.29 1019.60 1019.79 1019.89 1020.23 1020.59 1021.35 1021.49 1020.89 1020.18 1019.74 1019.45 1018.98 1019.23 1018.86 1018.75 1018.73 1018.80 1019.20 1019.66 1019.38 1019.22 1018.96 1018.62 1018.08 1017.55 1016.47 1015.53 1015.18 1014.57 1014.10 1013.61 1013.18 1012.84 1012.65 1012.50 1012.34 1012.16 1012.11 1012.01 1011.96 1011.88 1011.64 1011.23 1010.79 1010.43 1010.15 1009.77 1009.11 1008.63 1008.03 1007.76 1007.20
1018.60 1018.73 1019.04 1019.22 1019.69 1020.22 1020.68 1020.84 1020.90 1020.19 1019.39 1019.01 1018.66 1018.70 1018.63 1018.43 1017.98 1017.97 1017.97 1017.99 1018.37 1018.67 1018.88 1018.49 1017.76 1016.34 1015.58 1015.02 1014.40 1013.91 1013.43 1012.91 1012.40 1012.01 1011.71 1011.45 1011.30 1011.14 1011.12 1011.12 1011.09 1010.95 1010.78 1010.56 1010.26 1009.80 1009.30 1008.71 1008.21 1007.81 1007.30 1006.94 1006.76 1006.25
1017.80 1018.13 1018.45 1018.74 1019.39 1019.93 1019.85 1019.88 1019.91 1019.41 1018.59 1018.06 1017.93 1017.88 1017.78 1017.39 1017.19 1017.21 1017.20 1017.39 1017.86 1018.34 1017.92 1016.88 1015.84 1015.12 1014.50 1013.61 1013.18 1012.58 1012.03 1011.61 1011.26 1010.69 1010.27 1010.05 1009.99 1009.95 1009.93 1009.92 1009.76 1009.60 1009.45 1009.11 1008.70 1008.21 1007.58 1007.16 1006.78 1006.49 1006.30 1006.10 1005.97 1005.29
1017.14 1017.35 1017.82 1018.24 1018.74 1019.28 1019.00 1018.42 1018.58 1018.75 1018.38 1018.24 1017.76 1017.59 1017.07 1017.00 1016.97 1016.96 1016.81 1016.77 1017.12 1016.65 1015.82 1014.86 1013.88 1013.06 1012.29 1011.70 1011.46 1011.18 1010.66 1010.26 1010.13 1009.89 1009.30 1008.95 1008.86 1008.84 1008.72 1008.65 1008.68 1008.54 1008.27 1007.87 1007.43 1006.73 1006.62 1006.26 1005.48 1005.32 1005.14 1004.70 1004.41 1003.97
1016.75 1016.86 1017.65 1017.90 1018.19 1017.87 1017.87 1017.94 1018.13 1018.18 1018.34 1017.93 1017.92 1017.56 1017.09 1016.77 1016.41 1016.04 1015.76 1015.68 1014.89 1014.20 1013.81 1013.06 1012.23 1011.75 1011.34 1010.82 1010.21 1009.83 1009.75 1009.42 1009.04 1008.75 1008.53 1008.41 1008.13 1007.91 1007.70 1007.61 1007.49 1007.24 1007.00 1006.65 1006.17 1005.82 1005.36 1004.67 1004.29 1004.04 1003.83 1003.33 1003.06 1002.81
1016.46 1016.87 1017.39 1017.81 1017.97 1017.71 1017.53 1017.64 1017.84 1017.83 1017.81 1017.63 1017.76 1017.41 1016.77 1016.14 1015.55 1015.47 1014.93 1013.64 1013.03 1012.38 1011.77 1011.39 1010.83 1010.29 1010.11 1009.72 1009.49 1009.14 1008.80 1008.55 1008.15 1007.56 1007.41 1007.25 1006.95 1006.74 1006.41 1005.99 1005.87 1005.92 1005.60 1004.93 1004.54 1004.50 1004.09 1003.60 1003.19 1002.77 1002.56 1002.36 1002.16 1001.73
1016.37 1016.44 1016.68 1016.86 1017.12 1017.32 1017.60 1017.48 1017.50 1017.69 1017.58 1017.39 1017.07 1016.52 1015.76 1015.35 1015.09 1014.62 1013.15 1012.38 1011.69 1010.95 1010.28 1009.78 1009.70 1009.62 1009.24 1008.87 1008.61 1008.00 1007.39 1007.01 1006.79 1006.46 1006.20 1006.00 1005.66 1005.14 1004.87 1004.88 1004.70 1004.35 1003.75 1003.19 1003.38 1003.21 1002.90 1002.47 1002.00 1001.90 1001.61 1001.42 1001.07 1000.83
1015.97 1016.25 1016.41 1016.60 1016.93 1017.28 1017.29 1017.18 1017.07 1017.04 1016.66 1016.30 1016.21 1015.74 1014.85 1014.77 1014.29 1012.92 1011.73 1011.03 1010.28 1009.51 1009.03 1008.74 1008.61 1008.43 1008.16 1007.50 1006.90 1006.39 1005.95 1005.80 1005.51 1005.24 1004.91 1004.48 1004.03 1003.82 1003.84 1003.58 1003.07 1002.47 1002.05 1002.24 1002.21 1001.99 1001.61 1001.34 1001.16 1000.86 1000.47 1000.11 999.80 999.65
1014.68 1015.04 1015.23 1015.31 1015.82 1016.18 1016.09 1016.19 1016.03 1015.68 1015.52 1015.49 1014.97 1014.21 1014.08 1013.81 1012.99 1011.16 1009.90 1009.07 1008.54 1008.15 1007.85 1007.74 1007.56 1007.22 1006.73 1006.33 1005.97 1005.24 1004.43 1004.13 1004.39 1004.25 1003.43 1003.03 1002.88 1002.77 1002.54 1002.13 1001.45 1000.84 1000.65 1001.05 1000.87 1000.54 1000.19 1000.00 999.89 999.59 999.28 999.01 998.94 998.87
1013.49 1013.66 1014.09 1014.34 1014.61 1014.84 1015.02 1015.14 1014.90 1014.82 1014.47 1014.07 1013.14 1013.28 1013.39 1012.50 1010.52 1008.88 1007.99 1007.43 1007.20 1006.77 1006.55 1006.32 1006.22 1006.08 1005.52 1004.83 1004.15 1003.57 1003.30 1003.14 1003.12 1002.62 1002.01 1001.72 1001.37 1001.11 1000.97 1000.62 1000.28 999.80 999.79 999.64 999.51 999.35 999.17 998.87 998.65 998.50 998.29 998.05 997.83 997.73
1012.53 1012.73 1013.13 1013.93 1014.23 1014.09 1014.00 1013.95 1013.71 1013.28 1012.36 1011.81 1011.89 1011.67 1010.84 1009.55 1007.62 1006.85 1006.34 1005.76 1005.83 1005.57 1005.37 1005.12 1004.88 1004.49 1004.08 1003.48 1003.02 1002.62 1002.14 1002.14 1001.91 1001.62 1001.21 1000.55 1000.17 999.96 999.89 999.71 999.28 998.91 998.92 998.75 998.46 998.36 998.20 997.98 997.72 997.46 997.28 996.98 996.67 996.65
1011.94 1012.24 1012.65 1013.00 1013.23 1013.22 1012.69 1012.02 1011.08 1010.05 1009.31 1009.87 1009.64 1008.85 1007.87 1006.90 1006.03 1005.75 1004.85 1004.76 1004.82 1004.84 1004.49 1003.80 1002.91 1002.78 1002.59 1002.22 1001.75 1001.55 1001.39 1001.29 1001.29 1000.92 1000.39 999.66 998.88 998.37 998.70 998.29 998.03 997.89 997.81 997.71 997.44 997.34 997.11 996.92 996.70 996.51 996.25 996.03 995.72 995.56
1011.14 1011.35 1011.69 1011.60 1011.83 1011.02 1009.44 1009.55 1008.43 1007.78 1008.12 1008.07 1007.74 1007.22 1006.67 1005.42 1004.70 1004.63 1004.41 1003.91 1003.89 1003.45 1002.84 1002.63 1002.21 1002.09 1001.59 1001.35 1000.68 1000.19 1000.33 1000.21 1000.06 999.96 999.51 998.86 998.03 997.67 997.52 997.41 997.19 997.00 996.84 996.67 996.48 996.28 996.13 995.96 995.70 995.46 995.25 994.96 994.71 994.48
1010.51 1010.81 1010.79 1010.36 1009.51 1008.44 1007.83 1007.60 1007.42 1007.14 1007.06 1006.98 1006.68 1006.67 1005.50 1004.41 1003.71 1003.10 1003.63 1002.74 1002.42 1002.03 1002.10 1001.66 1001.31 1001.10 1000.93 1000.64 1000.39 999.98 999.20 998.96 998.96 998.82 998.55 998.18 997.73 997.41 997.20 997.03 996.81 996.51 996.18 995.90 995.69 995.43 995.18 994.96 994.73 994.45 994.21 994.01 993.87 993.82
1010.58 1010.39 1010.41 1009.71 1008.33 1007.60 1007.64 1007.47 1007.01 1006.58 1006.19 1006.10 1005.39 1005.41 1004.79 1004.78 1003.49 1002.31 1001.50 1001.34 1001.40 1001.41 1001.03 1001.08 1000.97 1000.72 1000.66 1000.66 1000.41 1000.11 999.81 999.43 999.28 999.05 998.81 998.38 997.83 997.36 997.12 996.79 996.47 995.96 995.54 995.18 994.88 994.56 994.29 994.04 993.80 993.60 993.41 993.29 993.35 993.51
1010.62 1010.67 1010.41 1009.88 1008.87 1008.00 1007.36 1007.54 1006.77 1006.06 1005.45 1005.12 1004.53 1004.28 1004.19 1004.32 1003.51 1001.76 1001.83 1001.84 1001.82 1001.83 1001.84 1001.74 1001.56 1001.28 1000.90 1000.57 1000.21 999.94 999.71 999.58 999.50 998.83 998.22 997.71 997.09 996.49 995.98 995.53 995.25 994.89 994.57 994.27 994.01 993.77 993.59 993.43 993.28 993.18 993.16 993.16 993.20 993.26
Wind_Speed
12 12 12 12 11 11 12 12 11 7 5 6 6 5 5 6 5 4 2 2 3 3 7 5 4 7 4 4 5 5 3 4 4 6 5 5 5 5 4 4 8 11 8 7 7 6 12 8 9 7 5 8 12 12
10 9 8 7 8 10 10 11 9 8 6 5 4 3 3 4 4 2 2 2 1 3 5 3 10 14 15 14 7 4 4 4 5 6 5 4 4 4 6 6 9 7 12 4 12 8 4 9 14 9 13 12 13 10
4 5 5 4 4 4 4 6 8 7 6 5 6 6 4 3 4 5 2 1 1 3 7 6 8 9 11 16 12 6 6 7 4 5 4 3 8 2 6 9 15 13 11 9 5 13 16 17 14 16 16 11 7 11
2 1 2 3 4 4 4 3 4 5 5 6 6 7 6 5 7 7 3 3 1 3 4 5 1 5 2 6 14 17 12 2 2 0 3 4 4 6 7 8 9 11 1 11 17 22 20 21 16 7 6 9 13 12
4 4 3 0 1 2 3 3 4 4 5 4 5 5 5 6 6 5 6 6 6 4 4 6 15 14 9 8 11 12 13 12 3 2 4 5 3 3 3 2 8 14 20 15 17 19 18 18 18 8 11 14 9 10
9 9 8 6 6 5 4 4 5 4 5 3 4 5 4 2 2 3 4 3 8 5 3 4 4 7 3 1 6 9 6 5 3 3 3 4 4 3 5 6 10 17 17 19 22 20 19 14 10 11 11 8 7 5
13 11 9 8 8 7 5 5 6 6 6 4 4 3 3 3 4 5 3 2 1 3 3 5 4 2 1 2 1 1 2 2 3 3 5 3 4 5 5 17 19 21 21 21 20 18 19 16 12 12 7 7 5 6
11 10 10 9 9 7 7 6 6 6 6 5 5 4 4 4 6 5 6 9 6 2 2 5 4 3 6 3 2 2 2 1 3 3 2 3 1 3 9 12 18 21 20 19 19 17 18 11 10 8 6 5 6 7
11 11 11 10 9 8 8 7 7 6 6 5 6 8 3 5 4 3 2 3 7 7 4 5 4 3 4 2 1 2 2 4 3 4 4 5 4 12 10 15 19 15 13 10 4 5 7 7 7 5 5 6 8 9
12 12 12 12 11 10 9 8 6 6 5 4 3 3 3 1 3 0 2 3 4 6 6 5 4 6 6 5 4 2 3 4 5 6 5 5 10 16 15 18 17 13 11 7 7 7 6 4 3 5 8 9 10 10
14 13 13 13 12 11 10 9 7 4 2 2 2 3 2 2 2 3 3 6 5 4 4 4 12 12 4 5 5 5 3 4 5 6 7 5 6 9 10 10 9 8 5 2 4 6 4 7 9 11 12 12 10 12
15 15 14 14 13 12 11 11 9 4 2 1 1 1 2 1 2 4 5 5 5 4 5 3 1 2 2 2 5 4 5 5 8 6 4 6 4 5 4 6 10 12 11 10 10 11 11 11 12 13 14 15 13 13
17 16 15 14 14 13 13 12 11 8 5 1 0 1 2 4 7 8 8 5 5 3 3 2 2 2 1 3 4 4 7 6 4 5 6 4 6 2 7 10 12 9 9 7 8 9 13 13 14 12 14 15 15 14
18 17 17 16 16 15 14 14 10 7 3 4 6 7 7 7 7 7 7 1 4 2 1 2 2 3 1 3 3 5 3 3 5 4 5 6 6 3 6 4 3 7 8 8 11 13 14 14 15 17 14 15 14 14
18 18 17 17 16 16 16 16 11 5 3 5 5 7 10 5 2 1 1 3 1 1 1 1 3 3 3 6 5 5 5 6 5 3 3 3 2 5 6 7 11 16 16 12 13 12 13 13 14 15 15 15 14 13
18 17 14 18 17 19 18 12 6 5 3 5 8 6 3 3 5 4 4 5 4 2 1 1 2 5 7 5 5 8 7 8 6 2 1 2 2 5 7 11 14 16 16 13 13 14 14 13 13 14 14 13 12 14
19 6 9 13 17 18 14 4 3 6 6 7 7 7 9 6 7 6 4 3 6 5 4 5 6 7 3 5 7 5 9 10 8 9 6 9 11 13 13 14 14 15 14 14 14 15 15 15 15 14 16 16 13 15
9 5 14 15 12 5 2 4 4 5 8 6 5 7 6 7 6 8 7 5 5 5 5 9 6 11 10 11 14 13 13 12 13 14 13 15 17 15 13 14 14 12 13 14 15 16 15 14 15 13 15 16 13 14
10 8 14 15 8 3 5 4 4 4 6 3 4 4 5 6 7 8 7 7 7 4 3 3 8 7 11 12 13 12 12 12 13 13 13 16 16 16 15 12 10 11 12 14 13 11 11 16 14 13 13 12 11 12
18 17 16 15 10 4 5 5 4 5 5 4 6 8 8 8 8 8 8 7 5 3 7 7 10 13 14 15 15 15 15 14 14 14 14 14 14 14 12 10 10 12 11 14 13 19 13 12 12 11 10 11 10 13
14 10 12 12 3 6 3 2 3 2 2 3 1 3 4 2 6 7 8 6 7 5 8 10 14 15 18 17 14 13 15 16 14 14 15 14 13 12 12 11 11 11 12 12 13 15 16 13 13 10 10 12 11 12
4 10 3 4 3 5 6 5 2 2 4 1 2 3 4 4 5 6 3 5 7 11 12 13 14 14 14 18 18 19 16 18 18 15 21 18 14 13 12 11 10 11 11 12 13 13 13 13 12 11 11 13 14 11
7 4 3 4 6 6 2 4 5 4 5 4 1 3 4 5 5 3 5 6 8 12 13 13 17 19 17 19 19 19 19 19 14 14 13 12 12 12 12 13 11 11 12 14 12 10 12 17 16 14 12 12 11 12
6 6 6 5 5 4 3 3 2 3 3 3 4 5 4 4 3 4 7 8 11 11 13 16 12 11 12 14 12 14 15 13 12 12 12 12 11 13 13 11 11 12 13 12 10 11 11 13 19 12 12 12 13 13
4 7 5 5 3 4 5 5 6 5 6 6 4 5 5 4 4 6 7 7 11 13 12 12 11 11 11 13 13 13 16 12 12 13 12 13 13 11 10 11 13 14 13 10 11 12 13 12 12 13 14 15 16 16
8 8 11 9 5 7 8 6 7 8 4 5 9 5 1 3 6 9 6 11 12 11 10 10 10 11 11 11 12 13 14 12 10 11 14 13 12 12 13 15 15 14 12 8 10 14 15 14 14 18 16 19 23 19
6 6 4 2 2 2 2 0 1 3 6 8 5 4 5 7 9 8 9 10 10 9 9 10 9 10 13 15 14 14 13 12 12 13 14 13 14 13 12 13 16 15 13 14 13 14 15 16 16 15 15 14 14 13
4 5 9 8 5 4 5 4 6 8 7 5 3 6 7 9 16 13 13 11 9 9 9 9 10 12 14 15 14 14 14 12 13 13 12 13 12 12 13 12 14 24 15 15 15 13 13 13 14 15 15 14 13 11
5 4 4 6 5 5 8 8 10 10 12 7 11 16 19 14 15 13 15 11 9 8 11 14 16 12 12 11 12 11 10 10 11 16 20 15 14 12 8 9 9 9 9 10 18 18 15 13 13 12 14 13 12 11
6 7 7 6 7 9 13 10 12 13 8 10 12 14 14 16 15 11 12 13 12 14 15 14 14 12 14 13 14 14 8 8 9 11 13 14 13 11 9 8 8 8 8 9 9 10 17 15 13 11 11 10 9 9
4 7 5 9 14 15 17 13 11 11 10 11 11 11 17 17 16 14 13 15 15 14 12 14 13 12 11 11 10 11 12 6 7 10 11 10 10 10 9 9 9 9 9 9 9 10 11 11 10 11 12 12 12 10
5 8 5 6 12 11 5 6 8 9 10 11 14 11 13 9 16 12 8 9 8 10 14 12 9 9 4 5 6 7 14 9 8 6 8 8 9 10 10 9 9 9 10 10 10 10 11 12 10 10 10 10 6 6
1 1 2 3 4 4 2 1 4 5 3 7 9 11 11 8 9 5 3 2 0 2 2 3 4 6 8 9 8 8 9 5 9 16 19 20 20 17 11 7 7 7 9 9 9 8 9 11 9 8 6 6 5 6
Wind_Direction
237 244 251 258 251 244 247 225 239 246 277 308 285 301 348 339 355 339 9 20 326 284 287 234 248 229 196 228 242 113 200 189 181 219 219 225 242 197 258 212 178 186 193 200 205 228 259 128 133 227 24 345 330 318
224 232 236 243 255 251 247 222 215 239 248 261 259 270 311 319 303 293 278 71 8 249 285 273 254 263 267 276 279 195 280 161 212 228 231 275 231 228 241 249 186 249 211 234 205 221 277 201 262 253 307 292 304 308
168 176 175 177 180 184 184 198 205 214 217 245 268 271 266 258 252 230 313 20 235 274 269 250 248 253 230 239 239 252 216 239 213 253 313 273 245 217 233 231 250 242 250 240 259 244 250 260 282 280 288 321 326 314
148 181 182 205 211 185 168 184 218 218 236 248 262 274 274 250 254 194 222 160 306 296 273 287 69 255 227 220 220 227 244 152 1 93 229 223 230 221 244 262 264 260 246 250 256 267 280 273 269 284 330 307 308 305
293 287 291 252 210 192 213 196 221 238 241 247 258 269 287 285 279 252 245 218 202 232 283 294 323 287 212 193 210 223 234 239 195 205 215 223 228 281 214 274 242 248 256 253 262 265 273 279 292 339 311 303 302 295
275 283 273 271 269 258 239 241 235 234 243 247 257 270 274 281 282 247 273 178 209 191 263 272 283 256 49 192 233 234 221 223 200 186 210 227 216 230 247 244 238 260 251 247 260 268 278 295 302 290 289 293 294 267
259 265 274 278 285 283 277 267 268 268 272 273 268 278 293 259 232 229 301 15 350 117 256 282 264 110 101 122 118 196 195 202 214 206 214 213 202 210 255 257 265 271 270 270 274 278 277 268 271 298 297 274 258 268
256 255 258 263 267 272 274 274 262 263 274 282 292 294 280 257 274 263 258 195 160 211 225 258 264 249 173 173 203 179 167 167 209 255 220 204 229 214 255 259 265 260 266 267 263 266 274 295 289 273 230 234 264 280
253 256 255 257 256 259 263 267 277 283 276 286 300 293 268 199 216 226 30 245 204 228 238 220 228 286 158 139 123 182 216 224 193 230 215 185 198 223 231 250 258 268 271 272 278 273 271 254 245 232 249 258 263 285
256 256 257 258 258 256 254 258 266 286 303 300 279 238 236 194 357 244 169 214 211 190 224 242 225 234 189 164 190 208 190 227 235 217 170 227 256 262 266 258 269 272 269 241 241 236 208 237 274 289 289 289 283 285
252 250 253 256 255 255 252 248 242 239 196 193 212 238 8 332 247 232 234 208 189 231 212 224 228 239 166 211 211 217 205 205 236 187 207 235 256 240 263 285 294 294 248 190 9 28 345 321 312 304 290 280 274 275
252 252 247 249 250 248 248 244 227 201 210 141 320 316 261 265 241 230 226 220 215 242 178 222 198 281 141 183 218 192 233 190 241 130 221 245 250 356 3 83 87 84 75 45 13 344 320 301 294 297 296 289 284 279
250 249 250 250 248 244 243 239 232 209 146 238 255 319 211 198 226 220 211 212 214 197 155 193 222 229 151 203 235 232 226 225 123 215 232 263 26 356 140 120 88 67 41 11 323 293 280 280 275 280 283 277 271 277
250 250 249 245 243 243 241 240 230 188 141 205 187 199 215 211 226 214 230 268 43 4 181 201 247 229 205 224 236 259 236 210 218 232 226 68 20 36 160 109 8 343 310 282 254 258 258 263 270 266 269 278 275 268
249 248 248 247 241 238 237 237 216 170 176 215 204 216 221 231 266 347 18 294 211 298 183 238 253 231 231 257 229 261 236 244 228 262 69 107 78 149 157 261 261 257 265 282 269 260 259 259 263 272 273 269 265 271
247 251 247 247 243 237 232 236 208 174 215 213 210 233 197 233 231 214 209 235 197 196 193 143 283 266 234 229 231 231 254 256 310 55 183 208 233 221 230 243 253 266 277 279 280 283 285 286 274 270 273 264 264 264
246 234 209 227 238 241 234 197 160 200 220 210 215 216 246 261 247 239 214 236 165 177 216 246 229 236 313 234 234 240 265 289 304 294 263 245 242 254 255 257 263 268 272 279 284 287 284 282 280 277 273 271 268 267
236 218 208 220 226 234 195 166 216 224 223 218 221 222 210 245 252 250 244 219 203 228 249 257 271 256 254 260 264 270 272 272 270 269 273 279 286 283 273 269 272 272 271 274 267 268 276 274 272 271 274 271 268 261
227 206 211 225 208 175 178 212 195 249 243 203 225 247 233 243 242 244 248 240 216 249 294 222 248 240 250 253 263 266 266 266 269 270 271 273 269 270 277 277 264 268 267 268 273 270 273 270 269 275 274 277 274 274
233 231 225 229 197 191 202 203 179 227 229 237 229 236 229 243 247 245 246 233 208 192 219 227 248 259 262 262 259 261 262 267 271 272 270 269 271 273 268 264 270 277 279 278 274 271 270 274 271 267 268 264 267 270
230 228 235 224 187 207 271 189 185 225 245 245 342 219 238 223 245 247 249 230 211 210 234 233 247 254 253 255 259 265 266 266 269 273 274 275 276 278 280 281 277 275 273 274 274 277 284 275 276 282 275 271 266 265
197 194 102 135 227 215 206 169 201 180 193 192 213 211 237 224 227 221 207 215 231 241 239 246 249 258 262 259 258 262 269 267 266 268 272 275 274 274 271 268 271 271 269 268 268 269 270 271 274 272 268 269 273 270
122 122 134 161 211 214 227 152 186 193 213 201 165 219 232 228 229 96 234 224 240 244 249 251 253 255 260 266 273 273 270 272 268 267 272 269 266 266 264 261 257 257 260 261 261 262 263 269 272 270 269 270 269 269
148 173 180 184 178 206 159 197 197 203 215 217 202 237 239 232 175 218 239 238 251 255 256 261 267 270 269 266 263 265 268 267 266 264 261 263 263 262 262 265 263 256 252 259 265 266 266 265 269 273 270 268 268 269
198 184 186 174 184 181 200 197 200 218 236 209 223 243 239 173 228 247 259 262 256 261 265 267 266 266 265 266 267 267 268 264 266 267 264 256 256 261 262 258 256 254 261 269 266 262 263 266 264 263 262 260 262 269
210 190 191 190 180 188 190 194 202 206 215 205 227 233 54 240 244 246 225 246 255 262 264 265 264 269 271 262 264 268 269 272 270 263 260 260 261 259 258 260 265 271 262 261 263 266 265 262 261 263 267 273 276 278
210 182 180 183 156 152 184 288 2 202 202 217 234 187 197 235 238 242 252 249 255 260 264 259 258 264 274 279 276 269 271 277 269 266 271 270 266 261 259 261 264 264 270 275 271 264 269 275 275 273 274 274 271 269
208 186 170 177 199 210 224 202 196 209 225 214 191 212 214 219 256 265 268 273 267 273 265 258 258 266 271 271 272 277 280 279 279 279 279 273 265 261 263 262 262 269 271 270 273 275 269 267 268 269 270 269 270 267
200 169 160 188 184 196 215 210 228 229 234 220 243 248 251 251 262 271 274 277 278 272 275 278 280 277 273 272 269 270 269 268 268 271 274 274 283 274 250 257 259 253 248 249 260 260 263 263 263 264 263 265 265 264
208 171 205 191 185 225 235 203 246 251 247 239 247 259 264 265 265 266 272 275 268 265 265 269 272 275 276 279 281 279 262 257 246 241 258 268 268 278 281 275 272 270 265 262 261 264 270 275 275 270 267 265 262 260
151 181 225 231 241 243 249 261 263 261 257 251 244 244 257 271 282 274 271 269 268 268 270 267 268 267 269 273 272 279 287 273 265 264 264 273 278 282 285 287 285 282 275 269 270 270 268 268 263 264 262 262 260 254
188 204 195 240 257 261 268 250 255 254 258 253 254 249 259 261 268 285 242 238 246 248 255 267 274 286 342 314 287 278 282 292 298 298 300 288 283 277 275 274 271 269 269 268 268 268 269 270 271 268 264 261 237 243
227 180 265 285 283 261 315 235 262 277 240 250 251 245 242 232 252 266 115 32 2 318 322 307 295 286 281 280 281 288 299 293 293 297 298 297 296 293 291 285 281 269 260 262 267 268 272 271 270 270 264 256 255 257